Location: 81360 Arifat, France
(43.7204°N, 2.3408°E)
Time: 21:33:55
(UTC+01:00)

SR - Visible Passes

Search period start: 05 December 2025 00:00
Search period end: 15 December 2025 00:00
Orbit: 577 x 845 km, 66.7° (Epoch: 05 December)

Date Brightness Start Highest point End Pass type
(mag) Time Alt. Az. Time Alt. Az. Time Alt. Az.
05 Dec ? 07:08:39 10° N 07:11:30 17° NE 07:14:25 10° E visible
07 Dec ? 07:00:18 10° N 07:03:51 24° NE 07:07:33 10° ESE visible
08 Dec ? 06:06:42 10° NNE 06:08:38 13° NE 06:10:36 10° ENE visible
09 Dec ? 06:52:05 10° NNW 06:56:07 34° NE 07:00:21 10° ESE visible
10 Dec ? 05:58:29 12° N 06:01:01 18° NE 06:04:07 10° E visible
10 Dec ? 07:38:40 10° NW 07:43:04 68° WSW 07:47:46 10° SSE visible
11 Dec ? 06:44:28 13° NNW 06:48:18 52° NE 06:52:53 10° SE visible
12 Dec ? 05:51:26 19° N 05:53:20 25° NE 05:57:10 10° ESE visible
12 Dec ? 07:30:54 10° NW 07:35:06 42° WSW 07:39:36 10° S visible
13 Dec ? 04:58:26 13° NE 04:58:26 13° NE 05:00:21 10° ENE visible
13 Dec ? 06:37:31 22° NNW 06:40:25 82° ENE 06:45:11 10° SSE visible
14 Dec ? 05:44:35 32° NNE 05:45:34 36° NE 05:49:54 10° ESE visible
14 Dec ? 07:23:39 12° WNW 07:27:06 27° WSW 07:31:06 10° S visible
